This demonstration page uses our WeatherBlox Daily Observations layout. Learn more.

41.55636, -103.73856

Hourly Observations for July 12, 2019

Temp ( °F °C ) Dew Point ( °F °C ) Humidity (%) Winds ( mph kmh ) Pressure ( in mb ) Visibility ( mi km ) Precip ( " mm )
12:58 am 00:58 Clear 86 29.9 53 11.7 33 33 NE 3 6 29.95 1014 10 16.0934 0 0
1:58 am 01:58 Clear 83 28.6 49 9.3 30 30 ESE 5 7 29.94 1014 10 16.0934 0 0
2:58 am 02:58 Clear 76 24.3 53 11.9 46 46 SSE 6 9 29.95 1014 10 16.0934 0 0
3:58 am 03:58 Clear 73 22.7 53 11.5 49 49 SSE 6 9 29.95 1014 10 16.0934 0 0
4:58 am 04:58 Clear 67 19.4 55 12.7 65 65 SSW 9 15 29.86 1011 10 16.0934 0 0
5:58 am 05:58 Clear 68 20 50 10 53 53 SW 12 19 29.85 1011 10 16.0934 0 0
6:58 am 06:58 Clear 67 19.7 50 10 54 54 SSW 13 20 29.84 1010 10 16.0934 0 0
7:58 am 07:58 Clear 66 19 51 10.3 57 57 SW 14 22 29.91 1013 10 16.0934 0 0
8:58 am 08:58 Clear 64 17.9 49 9.4 58 58 W 12 19 29.92 1013 10 16.0934 0 0
9:58 am 09:58 Clear 65 18.2 45 7.3 49 49 W 13 20 29.91 1013 10 16.0934 0 0
10:58 am 10:58 Clear 67 19.5 44 6.4 43 43 W 12 19 29.9 1013 10 16.0934 0 0
11:58 am 11:58 Mostly Sunny 61 16 46 7.5 57 57 SW 10 17 29.95 1014 10 16.0934 0 0
12:58 pm 12:58 Mostly Cloudy 66 18.8 45 7.4 48 48 N 12 19 29.98 1015 10 16.0934 0 0
2:58 pm 14:58 Sunny 71 21.5 63 17 76 76 ENE 10 17 30.02 1017 10 16.0934 0 0
3:58 pm 15:58 Mostly Cloudy 72 22 63 17.2 74 74 NE 15 24 30.01 1016 10 16.0934 0 0
4:58 pm 16:58 Mostly Sunny 74 23.3 64 17.7 71 71 E 9 15 30.04 1017 10 16.0934 0 0
5:58 pm 17:58 Sunny 76 24.2 64 17.5 66 66 Calm 30.03 1017 10 16.0934 0 0
6:58 pm 18:58 Sunny 79 26.2 65 18.4 62 62 Calm 30 1016 10 16.0934 0 0
8:58 pm 20:58 Sunny 83 28.1 63 17.1 51 51 SSE 8 13 29.96 1015 10 16.0934 0 0
9:58 pm 21:58 Partly Cloudy 77 25.1 64 17.7 64 64 WSW 8 13 30.01 1016 10 16.0934 0 0
10:58 pm 22:58 Mostly Cloudy with Nearby Thunderstorms 73 22.5 56 13.1 55 55 W 9 15 30.01 1016 10 16.0934 0 0
11:58 pm 23:58 Mostly Cloudy 75 23.8 51 10.4 43 43 W 8 13 29.98 1015 10 16.0934 0 0

Powered by AerisWeather